Location: La Fredeussais
(48.1780°N, 1.3980°W)
Time: 20:22:49
(UTC+00:00)

PRISM - Pass Details

Date: 03 November 2021
Orbit: 561 x 584 km, 98.2° (Epoch: 03 December)

Event Time Altitude Azimuth Distance (km) Brightness Sun altitude
Rises 05:38:07 0° 357° (N) 2,791 ? -13.0°
Reaches altitude 10° 05:41:11 10° 332° (NNW) 1,881 ? -12.5°
Enters shadow 05:42:24 13° 315° (NW) 1,689 ? -12.3°
